Location: Bothwell
(42.3833°S, 147.0000°E)
Time: 00:27:21
(UTC+10:00)

TIGRISAT - Visible Passes

Search period start: 29 September 2023 00:00
Search period end: 09 October 2023 01:00
Orbit: 598 x 680 km, 97.7° (Epoch: 27 September)

Date Brightness Start Highest point End Pass type
(mag) Time Alt. Az. Time Alt. Az. Time Alt. Az.
29 Sep ? 04:38:56 10° SE 04:42:46 25° E 04:46:28 10° NNE visible
30 Sep ? 05:01:32 10° SSE 05:05:58 42° E 05:10:14 10° N visible
02 Oct ? 05:12:59 10° ESE 05:15:07 13° E 05:17:12 10° ENE visible
03 Oct ? 05:34:47 10° SE 05:38:24 22° E 05:41:55 10° NE visible
04 Oct ? 05:57:16 10° SSE 06:01:35 38° E 06:05:44 10° NNE visible
06 Oct ? 05:09:05 10° ESE 05:10:39 12° E 05:12:11 10° ENE visible
07 Oct ? 05:30:32 10° SE 05:33:54 20° E 05:37:12 10° NE visible
08 Oct ? 05:52:55 10° SSE 05:57:05 34° E 06:01:06 10° NNE visible
